Shannon, Ireland

7:13 PM IST on May 24, 2018 (GMT +0100)
Shannon

Weather History for EINN - January, 2014

Change the Weather History Date:

Thursday, January 23, 2014

  Actual Average Record
Temperature  
Mean Temperature 43 °F -  
Max Temperature 45 °F 47 °F 57 °F (2008)
Min Temperature 41 °F 37 °F 30 °F (2005)
Degree Days  
Heating Degree Days 22    
Moisture  
Dew Point 41 °F    
Average Humidity 86    
Maximum Humidity 100    
Minimum Humidity 72    
Precipitation  
Precipitation 0.08 in 0.10 in - ()
Sea Level Pressure  
Sea Level Pressure 29.94 in    
Wind  
Wind Speed 13 mph ()    
Max Wind Speed 30 mph    
Max Gust Speed 50 mph    
Visibility 6.4 miles    
Events Rain    
Averages and records for this station are not official NWS values.
T = Trace of Precipitation, MM = Missing Value Source: Averaged Metar Reports

Daily Weather History Graph

Daily Weather History Graph

Search for Another Location

Airport or City:

Astronomy

Jan. 23, 2014 Rise Set
Actual Time 8:31 AM GMT 5:04 PM GMT
Civil Twilight 7:52 AM GMT 5:43 PM GMT
Nautical Twilight 7:10 AM GMT 6:25 PM GMT
Astronomical Twilight 6:29 AM GMT 7:05 PM GMT
Moon 12:18 AM GMT (1/23) 10:58 AM GMT (1/23)
Length of Visible Light 9h 50m
Length of Day
8h 33m
Waning Gibbous, 57% of the Moon is Illuminated
Jan 23
Waning Gibbous
Jan 24
Last Quarter
Jan 30
New
Feb 6
First Quarter
Feb 14
Full

Hourly Weather History & Observations

Time (GMT) Temp. Windchill Dew Point Humidity Pressure Visibility Wind Dir Wind Speed Gust Speed Precip Events Conditions
12:00 AM 45 °F - 43 °F 92% 29.85 in 9 mi SSW 15.7 mph - - Rain Light Drizzle
12:00 AM 44.6 °F 37.8 °F 42.8 °F 93% 29.83 in 6.2 mi SSW 15.0 mph - N/A   Mostly Cloudy
12:30 AM 46.4 °F 40.4 °F 44.6 °F 93% 29.86 in 6.2 mi WSW 13.8 mph - N/A   Light Drizzle
1:00 AM 47 °F - 43 °F 82% 29.86 in 12 mi West 17.9 mph - - Rain Light Drizzle
1:00 AM 48.2 °F - 42.8 °F 82% 29.86 in 6.2 mi West 17.3 mph - N/A   Mostly Cloudy
1:30 AM 46.4 °F 38.5 °F 41.0 °F 81% 29.86 in 6.2 mi West 21.9 mph 34.5 mph N/A   Mostly Cloudy
2:00 AM 46 °F - 40 °F 74% 29.88 in 12 mi West 20.1 mph - - Rain Light Rain
2:00 AM 46.4 °F 39.0 °F 41.0 °F 81% 29.86 in 6.2 mi West 19.6 mph - N/A Rain Light Rain
2:30 AM 44.6 °F 37.8 °F 41.0 °F 87% 29.86 in 6.2 mi West 15.0 mph - N/A   Mostly Cloudy
3:00 AM 45 °F - 42 °F 83% 29.88 in 12 mi West 15.7 mph - - Rain Light Rain Showers
3:00 AM 44.6 °F 37.4 °F 41.0 °F 87% 29.86 in 6.2 mi West 16.1 mph - N/A   Mostly Cloudy
3:30 AM 46.4 °F 39.8 °F 41.0 °F 81% 29.86 in 6.2 mi West 16.1 mph - N/A   Mostly Cloudy
4:00 AM 44 °F - 40 °F 79% 29.89 in 9 mi West 29.1 mph - - Rain Light Rain Showers
4:00 AM 44.6 °F 34.7 °F 39.2 °F 81% 29.89 in 6.2 mi West 29.9 mph 49.5 mph N/A Rain Light Rain Showers
4:30 AM 44.6 °F 37.8 °F 39.2 °F 81% 29.89 in 6.2 mi West 15.0 mph - N/A   Mostly Cloudy
5:00 AM 43 °F - 39 °F 80% 29.91 in 9 mi WNW 22.4 mph - - Rain Light Rain Showers
5:00 AM 42.8 °F 33.8 °F 39.2 °F 87% 29.89 in 6.2 mi WNW 21.9 mph 38.0 mph N/A   Mostly Cloudy
5:30 AM 42.8 °F 34.3 °F 37.4 °F 81% 29.92 in 6.2 mi WNW 19.6 mph 32.2 mph N/A   Mostly Cloudy
6:00 AM 43 °F - 39 °F 79% 29.92 in 9 mi West 13.4 mph - - Rain Light Rain Showers
6:00 AM 42.8 °F 36.2 °F 39.2 °F 87% 29.92 in 6.2 mi West 12.7 mph - N/A Rain Light Rain Showers
6:30 AM 44.6 °F 38.1 °F 39.2 °F 81% 29.92 in 6.2 mi West 13.8 mph - N/A Rain Light Rain Showers
7:00 AM 43 °F - 39 °F 82% 29.94 in 12 mi West 8.9 mph - - Rain Light Rain Showers
7:00 AM 42.8 °F 38.0 °F 39.2 °F 87% 29.92 in 6.2 mi West 8.1 mph - N/A   Mostly Cloudy
7:30 AM 42.8 °F 34.0 °F 37.4 °F 81% 29.95 in 6.2 mi WNW 20.7 mph 33.4 mph N/A   Mostly Cloudy
8:00 AM 43 °F - 38 °F 75% 29.98 in 9 mi West 15.7 mph - - Rain Light Rain Showers
8:00 AM 42.8 °F 35.4 °F 37.4 °F 81% 29.98 in 6.2 mi West 15.0 mph - N/A Rain Light Rain Showers
8:30 AM 42.8 °F 35.4 °F 37.4 °F 81% 29.95 in 6.2 mi West 15.0 mph - N/A   Mostly Cloudy
9:00 AM 42 °F - 38 °F 80% 29.99 in 8 mi WSW 11.2 mph - - Rain Light Rain Showers
9:00 AM 42.8 °F 37.0 °F 37.4 °F 81% 29.98 in 6.2 mi WSW 10.4 mph - N/A   Mostly Cloudy
9:30 AM 44.6 °F 39.2 °F 37.4 °F 76% 29.98 in 6.2 mi West 10.4 mph - N/A   Mostly Cloudy
10:00 AM 44 °F - 38 °F 73% 29.99 in 9 mi WNW 2.2 mph - - Rain Light Rain
10:00 AM 42.8 °F - 37.4 °F 81% 29.98 in 6.2 mi WNW 2.3 mph - N/A Rain Light Rain
10:30 AM 44.6 °F 40.2 °F 39.2 °F 81% 29.98 in 6.2 mi WNW 8.1 mph - N/A Rain Light Rain
11:00 AM 45 °F - 39 °F 72% 30.01 in 10 mi West 8.9 mph - - Rain Light Rain
11:00 AM 44.6 °F 39.7 °F 39.2 °F 81% 30.01 in 6.2 mi West 9.2 mph - N/A   Mostly Cloudy
11:30 AM 44.6 °F 39.7 °F 39.2 °F 81% 30.01 in 5.0 mi West 9.2 mph - N/A   Mostly Cloudy
12:00 PM 44 °F - 39 °F 78% 30.01 in 12 mi West 11.2 mph - - Rain Light Rain
12:00 PM 44.6 °F 38.8 °F 39.2 °F 81% 30.01 in 6.2 mi West 11.5 mph - N/A   Mostly Cloudy
12:30 PM 44.6 °F 39.7 °F 39.2 °F 81% 30.01 in 6.2 mi WSW 9.2 mph - N/A   Mostly Cloudy
1:00 PM 44 °F - 40 °F 80% 30.01 in 10 mi WSW 20.1 mph - - Rain Light Rain
1:00 PM 44.6 °F 36.4 °F 39.2 °F 81% 30.01 in 6.2 mi WSW 20.7 mph - N/A   Mostly Cloudy
1:30 PM 44.6 °F 38.1 °F 39.2 °F 81% 29.98 in 6.2 mi West 13.8 mph - N/A   Mostly Cloudy
2:00 PM 45 °F - 40 °F 78% 30.00 in 8 mi WSW 17.9 mph - - Rain Light Rain
2:00 PM 44.6 °F 36.9 °F 41.0 °F 87% 29.98 in 6.2 mi WSW 18.4 mph - N/A Rain Light Rain
2:30 PM 44.6 °F 37.4 °F 41.0 °F 87% 30.01 in 4.3 mi WNW 16.1 mph - N/A Rain Light Rain
3:00 PM 44 °F - 40 °F 83% 30.00 in 12 mi West 8.9 mph - - Rain Light Rain
3:00 PM 44.6 °F 40.2 °F 41.0 °F 87% 29.98 in 6.2 mi West 8.1 mph - N/A   Mostly Cloudy
3:30 PM 44.6 °F 38.8 °F 39.2 °F 81% 30.01 in 5.0 mi West 11.5 mph - N/A Rain Light Rain
4:00 PM 44 °F - 40 °F 81% 30.01 in 5 mi West 8.9 mph - - Rain Light Rain
4:00 PM 44.6 °F 40.2 °F 41.0 °F 87% 30.01 in 5.0 mi West 8.1 mph - N/A Rain Light Rain
4:30 PM 44.6 °F 38.8 °F 41.0 °F 87% 30.01 in 6.2 mi West 11.5 mph - N/A Rain Light Rain
5:00 PM 44 °F - 41 °F 85% 30.01 in 7 mi West 8.9 mph - - Rain Light Rain
5:00 PM 44.6 °F 40.2 °F 41.0 °F 87% 30.01 in 6.2 mi West 8.1 mph - N/A Rain Light Rain
5:30 PM 44.6 °F 41.4 °F 41.0 °F 87% 30.01 in 5.0 mi SW 5.8 mph - N/A Rain Light Rain
6:00 PM 43 °F - 42 °F 94% 30.01 in 4 mi SSW 6.7 mph - - Rain Light Rain
6:00 PM 42.8 °F 38.6 °F 42.8 °F 100% 30.01 in 3.7 mi SSW 6.9 mph - N/A Rain Light Rain
6:30 PM 42.8 °F 38.6 °F 42.8 °F 100% 30.01 in 3.1 mi South 6.9 mph - N/A Rain Light Rain
7:00 PM 44 °F - 43 °F 94% 30.00 in 5 mi SSW 8.9 mph - - Rain Light Rain
7:00 PM 44.6 °F 39.7 °F 42.8 °F 93% 29.98 in 5.0 mi SSW 9.2 mph - N/A Rain Light Rain
7:30 PM 44.6 °F 39.7 °F 42.8 °F 93% 29.98 in 5.0 mi SSW 9.2 mph - N/A Rain Light Rain
8:00 PM 44 °F - 43 °F 93% 29.98 in 5 mi SSW 6.7 mph - - Rain Light Rain
8:00 PM 44.6 °F 40.7 °F 42.8 °F 93% 29.98 in 5.0 mi SSW 6.9 mph - N/A Rain Light Rain
8:30 PM 44.6 °F 40.7 °F 42.8 °F 93% 29.95 in 2.5 mi SSE 6.9 mph - N/A   Light Drizzle
9:00 PM 44 °F - 43 °F 93% 29.94 in 2 mi SSE 8.9 mph - - Rain Light Drizzle
9:00 PM 42.8 °F 37.5 °F 42.8 °F 100% 29.92 in 2.5 mi SSE 9.2 mph - N/A   Light Drizzle
9:30 PM 42.8 °F 37.0 °F 42.8 °F 100% 29.92 in 2.5 mi SSE 10.4 mph - N/A Rain Light Rain
10:00 PM 43 °F - 43 °F 98% 29.91 in 4 mi SE 11.2 mph - - Rain Light Rain
10:00 PM 42.8 °F 36.6 °F 42.8 °F 100% 29.89 in 3.7 mi SE 11.5 mph - N/A Rain Light Rain
10:30 PM 42.8 °F 36.2 °F 42.8 °F 100% 29.86 in 3.7 mi SE 12.7 mph - N/A Rain Light Rain
11:00 PM 43 °F - 43 °F 98% 29.86 in 4 mi SE 11.2 mph - - Rain Light Rain
11:00 PM 42.8 °F 36.6 °F 42.8 °F 100% 29.83 in 3.7 mi SE 11.5 mph - N/A Rain Light Rain
11:30 PM 44.6 °F 39.7 °F 44.6 °F 100% 29.80 in 3.7 mi ESE 9.2 mph - N/A Rain Rain